Fort Knox, KY

1:14 AM EDT on May 24, 2017 (GMT -0400)
Godman Army Air Field

Weather History for KFTK - July, 2013

Change the Weather History Date:

Sunday, July 28, 2013

  Actual Average Record
Temperature  
Mean Temperature 62 °F -  
Max Temperature 75 °F 83 °F 95 °F (1999)
Min Temperature 50 °F 65 °F 50 °F (2013)
Degree Days  
Heating Degree Days 3    
Growing Degree Days 12 (Base 50)    
Moisture  
Dew Point 52 °F    
Average Humidity 71    
Maximum Humidity 100    
Minimum Humidity 43    
Precipitation  
Precipitation 0.00 in - - ()
Sea Level Pressure  
Sea Level Pressure 30.03 in    
Wind  
Wind Speed 4 mph (West)    
Max Wind Speed 10 mph    
Max Gust Speed -    
Visibility 10 miles    
Events      
Averages and records for this station are not official NWS values.
T = Trace of Precipitation, MM = Missing Value Source: NWS Daily Summary

Daily Weather History Graph

Daily Weather History Graph

Search for Another Location

Airport or City:

Trip Planner

Search our weather history database for the weather conditions in past years. The results will help you decide how hot, cold, wet, or windy it might be!

Date:

Astronomy

Jul. 28, 2013 Rise Set
Actual Time 6:43 AM EDT 8:56 PM EDT
Civil Twilight 6:14 AM EDT 9:25 PM EDT
Nautical Twilight 5:38 AM EDT 10:01 PM EDT
Astronomical Twilight 4:58 AM EDT 10:40 PM EDT
Moon No Moon Rise 1:17 PM EDT (7/28)
Length of Visible Light 15h 11m
Length of Day
14h 12m
Waning Gibbous, 61% of the Moon is Illuminated
Jul 28
Waning Gibbous
Jul 29
Last Quarter
Aug 6
New
Aug 14
First Quarter
Aug 20
Full

Hourly Weather History & Observations

Time (EDT) Temp. Dew Point Humidity Pressure Visibility Wind Dir Wind Speed Gust Speed Precip Events Conditions
12:58 AM 62.6 °F 54.5 °F 75% 29.98 in 10.0 mi WNW 5.8 mph - N/A   Clear
1:58 AM 60.8 °F 52.3 °F 74% 29.98 in 10.0 mi NW 6.9 mph - N/A   Scattered Clouds
2:59 AM 56.3 °F 50.9 °F 82% 29.98 in 10.0 mi West 3.5 mph - N/A   Clear
3:58 AM 52.5 °F 49.8 °F 91% 29.98 in 10.0 mi West 4.6 mph - N/A   Clear
4:58 AM 52.7 °F 50.9 °F 94% 29.98 in 10.0 mi Calm Calm - N/A   Clear
5:58 AM 50.0 °F 49.3 °F 97% 30.00 in 10.0 mi WSW 1.2 mph - N/A   Clear
6:33 AM 50.0 °F 48.2 °F 94% 30.02 in 1.2 mi SW 1.2 mph - N/A   Clear
6:43 AM 50.0 °F 50.0 °F 100% 30.02 in 8.0 mi Calm Calm - N/A   Clear
6:58 AM 50.2 °F 49.6 °F 98% 30.02 in 10.0 mi Calm Calm - N/A   Clear
7:58 AM 53.8 °F 53.2 °F 98% 30.03 in 10.0 mi Calm Calm - N/A   Clear
8:58 AM 61.2 °F 53.1 °F 75% 30.03 in 10.0 mi South 1.2 mph - N/A   Clear
9:58 AM 66.4 °F 50.0 °F 56% 30.05 in 10.0 mi West 2.3 mph - N/A   Clear
10:58 AM 67.1 °F 48.0 °F 50% 30.06 in 10.0 mi NW 3.5 mph - N/A   Clear
11:58 AM 68.5 °F 48.2 °F 48% 30.06 in 10.0 mi NNW 5.8 mph - N/A   Clear
12:58 PM 70.5 °F 50.4 °F 49% 30.05 in 10.0 mi Variable 3.5 mph - N/A   Clear
1:58 PM 71.2 °F 50.5 °F 48% 30.04 in 10.0 mi Variable 2.3 mph - N/A   Clear
2:58 PM 73.4 °F 51.1 °F 45% 30.03 in 10.0 mi South 5.8 mph - N/A   Clear
3:58 PM 74.1 °F 51.6 °F 45% 30.02 in 10.0 mi SW 5.8 mph - N/A   Clear
4:58 PM 74.7 °F 50.5 °F 43% 30.02 in 10.0 mi WSW 10.4 mph - N/A   Partly Cloudy
5:58 PM 74.7 °F 52.9 °F 46% 30.03 in 10.0 mi West 9.2 mph - N/A   Partly Cloudy
6:58 PM 73.2 °F 52.9 °F 49% 30.03 in 10.0 mi West 5.8 mph - N/A   Clear
7:58 PM 70.9 °F 55.0 °F 57% 30.05 in 10.0 mi West 3.5 mph - N/A   Clear
8:58 PM 65.5 °F 58.3 °F 77% 30.06 in 10.0 mi West 2.3 mph - N/A   Clear
9:58 PM 61.3 °F 56.1 °F 83% 30.07 in 10.0 mi Calm Calm - N/A   Clear
10:58 PM 58.3 °F 54.9 °F 88% 30.08 in 10.0 mi Calm Calm - N/A   Clear
11:58 PM 57.9 °F 55.2 °F 91% 30.08 in 10.0 mi Calm Calm - N/A   Clear